99P/Kowal 1 (2007)

Japanese version
Home page
Total 6,336 html files since Dec. 4, 1995
Updated on July 17, 2008

---------------------------------------------------------------------

* Profile

* Pictures

* Orbital Elements

Epoch 2007 Jan. 20.0 TT = JDT 2454120.5
T 2007 Jan. 15.7150 TT                                  MPC
q   4.718308             (2000.0)            P               Q
n   0.0653325      Peri.  172.8256      -0.9319921      +0.3606830
a   6.105437       Node    28.3999      -0.3362181      -0.8230402
e   0.227196       Incl.    4.3451      -0.1354553      -0.4387626
P  15.1
From 38 observations 1977-1995, mean residual 0".8.

* Finding Charts

* Magnitudes Graph

        m1 = 0.7 + 5 log d + 20.0 log r

---------------------------------------------------------------------

The orbital elements are published at the MPC Ephemerides and Orbital Elements.
The charts are made with StellaNavigator Ver.2.0 for Windows (AstroArts / ASCII).
The magnitudes graphs are made with Comet for Windows.

---------------------------------------------------------------------

Copyright(C) 1995-2008 Seiichi Yoshida (comet@aerith.net). All rights reserved.